NOAA 16 DEB, 41132

Orbit data source: Space-Track

NOAA 16 DEB, 41132 is space debris in SSO originally from a launch on Thu, 21 Sep 2000 UTC launched from the Air Force Western Test Range (AFWTR). Debris objects in space refer to the collection of defunct objects orbiting the Earth. Examples of debris include non-operational satellites, rocket bodies, and fragments generated from explosions, collisions, or faulty payload assembly.

Loading next visibility...
Identifier
41132, 2000-055BP
Orbit
SSO
Country
Flag of USUS
Related business
Manufacturer
Unknown
Mission
Spacecraft
Bus & Motor
Unknown
Mass
Unknown
Launch date (UTC)
2000-09-21 (26 years ago)
Launch vehicle
Unknown
Launch site
Air Force Western Test Range (AFWTR)
Object type
Payload
Rocket body
Debris
Shape & HBR
Unknown shape, 0.1 m
Radar Cross Section
Small (<0.1 m²)

Expand to show TLE details & history
Last TLE update: 23 hours ago

TLE from 23 hours ago
0 NOAA 16 DEB
1 41132U 00055BP  26208.47404791  .00010989  00000-0  19984-2 0  9995
2 41132  98.8645  32.0559 0026012 226.0399 133.8657 14.66102154555603
Epoch: 2026-07-27T11:22Z
TLE epoch observation values (Epoch: 2026-07-27T11:22:37.739Z)
Latitude
-0.00001°
Longitude
-83.75845°
Altitude
689.25 km
Speed
7.505 km/s
True Right ascension
02h 08m 13s
True Declination
0° 00' 00"
Sunlit
Object was in daylight at epoch
Visualization orbit readout
Latitude
Unknown
Longitude
Unknown
Altitude
Unknown
Speed
Unknown
Apparent Right ascension
Unknown
Apparent Declination
Unknown
Sunlit
N/A
Visualization observer readout
Local Sidereal Time
23:35:51
Azimuth
Unknown
Elevation
Unknown
Doppler factor
Unknown
Orbital elements
Apogee altitude
688.979 km
Perigee altitude
652.309 km
Semi-major axis
7,048.781 km
Eccentricity
0.0026
Inclination
98.8645°
RAAN
32.0559°
Arg. of periapsis
226.0399°
True anomaly
134.08012°
Mean anomaly
133.8657°
Eccentric anomaly
133.97296°
Mean motion
3.66752 °/min
Orbital period
98.16 mins
BSTAR
0.0019984
Loading maneuver chart data...
Computing Atmospheric mass density...
Loading historical data...
Loading historical data...
Loading historical data...
Loading historical data...
Loading historical data...
Loading historical data...
Loading historical data...

Documentation

Showing up to 5 results
|